Location: ????
(30.1475°N, 31.1342°E)
Time: 01:45:25
(UTC+00:00)

ARIANE 5 R/B - Pass Details

Date: 04 April 2023
Orbit: 748 x 794 km, 98.8° (Epoch: 29 May)

Event Time Altitude Azimuth Distance (km) Brightness Sun altitude
Rises 01:01:52 0° 33° (NNE) 3,290 6.6 -33.5°
Reaches altitude 10° 01:04:50 10° 50° (NE) 2,360 5.8 -32.9°
Maximum altitude 01:08:33 20° 96° (E) 1,780 4.9 -32.2°
Drops below altitude 10° 01:12:16 10° 142° (SE) 2,354 5.1 -31.5°
Enters shadow 01:12:32 - 144° (SE) 2,430 5.1 -31.5°
